Time,TemperatureF,DewpointF,PressureIn,WindDirection,WindDirectionDegrees,WindSpeedMPH,WindSpeedGustMPH,Humidity,HourlyPrecipIn,Conditions,Clouds,dailyrainin,SolarRadiationWatts/m^2,SoftwareType,DateUTC
2013-07-04 00:00:00,75.6,54.5,29.67,NW,315,0.0,2.0,48,0.00,,,-99.99,0,WeatherLink 5.7,2013-07-04 07:00:00,
2013-07-04 00:02:00,77.4,53.1,29.68,WNW,297,0.0,1.0,43,0.00,,,0.00,,Wunderground v.1.13,2013-07-04 07:02:00,
2013-07-04 00:07:00,77.2,53.6,29.68,West,279,1.0,1.0,44,0.00,,,0.00,,Wunderground v.1.13,2013-07-04 07:07:00,
2013-07-04 00:12:00,76.8,53.8,29.68,West,280,0.0,2.0,45,0.00,,,0.00,,Wunderground v.1.13,2013-07-04 07:12:00,
2013-07-04 00:15:00,75.3,54.8,29.67,NW,315,0.0,3.0,49,0.00,,,-99.99,0,WeatherLink 5.7,2013-07-04 07:15:00,
2013-07-04 00:22:00,76.7,53.8,29.67,West,280,0.0,2.0,45,0.00,,,0.00,,Wunderground v.1.13,2013-07-04 07:22:00,
2013-07-04 00:27:00,76.5,54.2,29.67,West,278,0.0,2.0,46,0.00,,,0.00,,Wunderground v.1.13,2013-07-04 07:27:00,
2013-07-04 00:30:00,74.7,54.8,29.68,WNW,292,0.0,2.0,50,0.00,,,-99.99,0,WeatherLink 5.7,2013-07-04 07:30:00,
2013-07-04 00:37:00,76.1,53.8,29.67,NW,306,1.0,1.0,46,0.00,,,0.00,,Wunderground v.1.13,2013-07-04 07:37:00,
2013-07-04 00:42:00,76.1,54.4,29.67,NW,319,1.0,1.0,47,0.00,,,0.00,,Wunderground v.1.13,2013-07-04 07:42:00,
2013-07-04 00:45:00,74.4,55.1,29.68,WNW,292,0.0,1.0,51,0.00,,,-99.99,0,WeatherLink 5.7,2013-07-04 07:45:00,
2013-07-04 00:47:00,76.0,54.3,29.67,NW,319,0.0,3.0,47,0.00,,,0.00,,Wunderground v.1.13,2013-07-04 07:47:00,
2013-07-04 00:57:00,75.8,54.7,29.67,NW,319,0.0,3.0,48,0.00,,,0.00,,Wunderground v.1.13,2013-07-04 07:57:00,
2013-07-04 01:00:00,74.0,55.3,29.67,WNW,292,0.0,1.0,52,0.00,,,-99.99,0,WeatherLink 5.7,2013-07-04 08:00:00,
2013-07-04 01:02:00,75.6,54.5,29.67,NW,319,0.0,3.0,48,0.00,,,0.00,,Wunderground v.1.13,2013-07-04 08:02:00,
2013-07-04 01:07:00,75.4,54.3,29.67,NW,319,0.0,2.0,48,0.00,,,0.00,,Wunderground v.1.13,2013-07-04 08:07:00,
2013-07-04 01:15:00,73.9,55.7,29.67,WNW,292,0.0,1.0,53,0.00,,,-99.99,0,WeatherLink 5.7,2013-07-04 08:15:00,
2013-07-04 01:17:00,75.3,55.4,29.67,WNW,284,0.0,2.0,50,0.00,,,0.00,,Wunderground v.1.13,2013-07-04 08:17:00,
2013-07-04 01:22:00,75.1,55.2,29.67,WNW,284,1.0,1.0,50,0.00,,,0.00,,Wunderground v.1.13,2013-07-04 08:22:00,
2013-07-04 01:30:00,73.3,55.6,29.67,NNW,337,0.0,2.0,54,0.00,,,-99.99,0,WeatherLink 5.7,2013-07-04 08:30:00,
2013-07-04 01:32:00,74.7,54.8,29.68,WNW,284,0.0,2.0,50,0.00,,,0.00,,Wunderground v.1.13,2013-07-04 08:32:00,
2013-07-04 01:37:00,74.7,55.4,29.68,WNW,284,0.0,2.0,51,0.00,,,0.00,,Wunderground v.1.13,2013-07-04 08:37:00,
2013-07-04 01:45:00,73.0,55.9,29.66,NNW,337,0.0,2.0,55,0.00,,,-99.99,0,WeatherLink 5.7,2013-07-04 08:45:00,
2013-07-04 01:47:00,74.4,55.6,29.68,WNW,284,0.0,2.0,52,0.00,,,0.00,,Wunderground v.1.13,2013-07-04 08:47:00,
2013-07-04 01:57:00,74.2,55.4,29.68,WNW,284,0.0,2.0,52,0.00,,,0.00,,Wunderground v.1.13,2013-07-04 08:57:00,
2013-07-04 02:00:00,72.7,55.6,29.66,West,270,0.0,5.0,55,0.00,,,-99.99,0,WeatherLink 5.7,2013-07-04 09:00:00,
2013-07-04 02:07:00,74.0,55.3,29.67,WNW,284,0.0,1.0,52,0.00,,,0.00,,Wunderground v.1.13,2013-07-04 09:07:00,
2013-07-04 02:15:00,72.7,56.1,29.66,West,270,0.0,4.0,56,0.00,,,-99.99,0,WeatherLink 5.7,2013-07-04 09:15:00,
2013-07-04 02:17:00,73.7,55.5,29.67,WNW,284,0.0,1.0,53,0.00,,,0.00,,Wunderground v.1.13,2013-07-04 09:17:00,
2013-07-04 02:22:00,73.7,55.5,29.67,WNW,284,0.0,1.0,53,0.00,,,0.00,,Wunderground v.1.13,2013-07-04 09:22:00,
2013-07-04 02:30:00,72.5,55.9,29.65,West,270,0.0,1.0,56,0.00,,,-99.99,0,WeatherLink 5.7,2013-07-04 09:30:00,
2013-07-04 02:32:00,73.3,55.6,29.67,NNW,338,0.0,1.0,54,0.00,,,0.00,,Wunderground v.1.13,2013-07-04 09:32:00,
2013-07-04 02:42:00,73.0,55.9,29.67,NNW,338,0.0,2.0,55,0.00,,,0.00,,Wunderground v.1.13,2013-07-04 09:42:00,
2013-07-04 02:45:00,72.5,55.4,29.65,West,270,0.0,3.0,55,0.00,,,-99.99,0,WeatherLink 5.7,2013-07-04 09:45:00,
2013-07-04 02:47:00,72.8,55.7,29.66,NNW,338,0.0,2.0,55,0.00,,,0.00,,Wunderground v.1.13,2013-07-04 09:47:00,
2013-07-04 02:57:00,72.7,55.6,29.66,West,269,0.0,2.0,55,0.00,,,0.00,,Wunderground v.1.13,2013-07-04 09:57:00,
2013-07-04 03:00:00,72.7,55.6,29.66,NW,315,0.0,2.0,55,0.00,,,-99.99,0,WeatherLink 5.7,2013-07-04 10:00:00,
2013-07-04 03:07:00,72.7,55.6,29.66,West,269,0.0,5.0,55,0.00,,,0.00,,Wunderground v.1.13,2013-07-04 10:07:00,
2013-07-04 03:12:00,72.7,56.1,29.66,West,268,0.0,5.0,56,0.00,,,0.00,,Wunderground v.1.13,2013-07-04 10:12:00,
2013-07-04 03:15:00,72.7,55.6,29.65,North,-999,0.0,0.0,55,0.00,,,-99.99,0,WeatherLink 5.7,2013-07-04 10:15:00,
2013-07-04 03:17:00,72.7,56.1,29.66,West,272,0.0,5.0,56,0.00,,,0.00,,Wunderground v.1.13,2013-07-04 10:17:00,
2013-07-04 03:27:00,72.7,56.1,29.66,West,273,0.0,5.0,56,0.00,,,0.00,,Wunderground v.1.13,2013-07-04 10:27:00,
2013-07-04 03:30:00,72.3,55.7,29.65,NW,315,0.0,1.0,56,0.00,,,-99.99,0,WeatherLink 5.7,2013-07-04 10:30:00,
2013-07-04 03:37:00,72.5,55.9,29.65,West,276,0.0,1.0,56,0.00,,,0.00,,Wunderground v.1.13,2013-07-04 10:37:00,
2013-07-04 03:45:00,72.0,55.9,29.65,North,-999,0.0,0.0,57,0.00,,,-99.99,0,WeatherLink 5.7,2013-07-04 10:45:00,
2013-07-04 03:47:00,72.5,55.4,29.65,NW,326,0.0,1.0,55,0.00,,,0.00,,Wunderground v.1.13,2013-07-04 10:47:00,
2013-07-04 03:52:00,72.5,55.4,29.65,NW,326,0.0,1.0,55,0.00,,,0.00,,Wunderground v.1.13,2013-07-04 10:52:00,
2013-07-04 04:00:00,71.8,55.7,29.65,NW,315,0.0,1.0,57,0.00,,,-99.99,0,WeatherLink 5.7,2013-07-04 11:00:00,
2013-07-04 04:02:00,72.7,55.1,29.66,NW,326,0.0,1.0,54,0.00,,,0.00,,Wunderground v.1.13,2013-07-04 11:02:00,
2013-07-04 04:07:00,72.7,55.6,29.66,NW,326,0.0,2.0,55,0.00,,,0.00,,Wunderground v.1.13,2013-07-04 11:07:00,
2013-07-04 04:15:00,71.6,55.6,29.64,NW,315,0.0,4.0,57,0.00,,,-99.99,0,WeatherLink 5.7,2013-07-04 11:15:00,
2013-07-04 04:17:00,72.5,55.4,29.65,NW,326,0.0,2.0,55,0.00,,,0.00,,Wunderground v.1.13,2013-07-04 11:17:00,
2013-07-04 04:27:00,72.3,55.7,29.65,NW,326,0.0,2.0,56,0.00,,,0.00,,Wunderground v.1.13,2013-07-04 11:27:00,
2013-07-04 04:30:00,71.6,56.0,29.64,NW,315,0.0,1.0,58,0.00,,,-99.99,0,WeatherLink 5.7,2013-07-04 11:30:00,
2013-07-04 04:37:00,72.1,56.0,29.65,NW,326,0.0,1.0,57,0.00,,,0.00,,Wunderground v.1.13,2013-07-04 11:37:00,
2013-07-04 04:42:00,72.0,55.9,29.65,NW,326,0.0,1.0,57,0.00,,,0.00,,Wunderground v.1.13,2013-07-04 11:42:00,
2013-07-04 04:45:00,71.8,56.7,29.64,NW,315,0.0,2.0,59,0.00,,,-99.99,0,WeatherLink 5.7,2013-07-04 11:45:00,
2013-07-04 04:52:00,71.8,55.7,29.65,NW,326,0.0,1.0,57,0.00,,,0.00,,Wunderground v.1.13,2013-07-04 11:52:00,
2013-07-04 05:00:00,72.1,56.5,29.65,NW,315,0.0,1.0,58,0.00,,,-99.99,3,WeatherLink 5.7,2013-07-04 12:00:00,
2013-07-04 05:02:00,71.6,56.0,29.65,NW,326,0.0,1.0,58,0.00,,,0.00,,Wunderground v.1.13,2013-07-04 12:02:00,
2013-07-04 05:07:00,71.6,55.6,29.65,NW,308,0.0,1.0,57,0.00,,,0.00,,Wunderground v.1.13,2013-07-04 12:07:00,
2013-07-04 05:15:00,72.3,56.7,29.65,NNW,337,0.0,4.0,58,0.00,,,-99.99,11,WeatherLink 5.7,2013-07-04 12:15:00,
2013-07-04 05:17:00,71.6,55.6,29.64,NW,308,0.0,1.0,57,0.00,,,0.00,,Wunderground v.1.13,2013-07-04 12:17:00,
2013-07-04 05:22:00,71.6,56.0,29.64,NW,308,0.0,1.0,58,0.00,,,0.00,,Wunderground v.1.13,2013-07-04 12:22:00,
2013-07-04 05:27:00,71.6,56.0,29.64,NW,308,0.0,1.0,58,0.00,,,0.00,,Wunderground v.1.13,2013-07-04 12:27:00,
2013-07-04 05:30:00,72.3,57.6,29.65,NNW,337,0.0,1.0,60,0.00,,,-99.99,16,WeatherLink 5.7,2013-07-04 12:30:00,
2013-07-04 05:37:00,71.8,56.7,29.64,NW,313,0.0,1.0,59,0.00,,,0.00,,Wunderground v.1.13,2013-07-04 12:37:00,
2013-07-04 05:42:00,71.8,56.7,29.64,NW,319,0.0,1.0,59,0.00,,,0.00,,Wunderground v.1.13,2013-07-04 12:42:00,
2013-07-04 05:45:00,72.3,58.1,29.65,NNW,337,0.0,1.0,61,0.00,,,-99.99,20,WeatherLink 5.7,2013-07-04 12:45:00,
2013-07-04 05:47:00,72.0,56.9,29.64,NW,319,0.0,1.0,59,0.00,,,0.00,,Wunderground v.1.13,2013-07-04 12:47:00,
2013-07-04 05:52:00,72.0,56.9,29.64,NW,319,0.0,1.0,59,0.00,,,0.00,,Wunderground v.1.13,2013-07-04 12:52:00,
2013-07-04 06:00:00,72.3,58.5,29.65,North,-999,0.0,0.0,62,0.00,,,-99.99,29,WeatherLink 5.7,2013-07-04 13:00:00,
2013-07-04 06:02:00,72.1,56.5,29.65,NNW,332,0.0,1.0,58,0.00,,,0.00,,Wunderground v.1.13,2013-07-04 13:02:00,
2013-07-04 06:12:00,72.3,57.2,29.65,NNW,332,0.0,1.0,59,0.00,,,0.00,,Wunderground v.1.13,2013-07-04 13:12:00,
2013-07-04 06:15:00,73.0,59.7,29.65,North,-999,0.0,0.0,63,0.00,,,-99.99,91,WeatherLink 5.7,2013-07-04 13:15:00,
2013-07-04 06:17:00,72.3,57.2,29.65,NNW,332,0.0,1.0,59,0.00,,,0.00,,Wunderground v.1.13,2013-07-04 13:17:00,
2013-07-04 06:22:00,72.3,57.2,29.65,NNW,332,0.0,1.0,59,0.00,,,0.00,,Wunderground v.1.13,2013-07-04 13:22:00,
2013-07-04 06:30:00,74.2,59.4,29.65,NNW,337,0.0,2.0,60,0.00,,,-99.99,61,WeatherLink 5.7,2013-07-04 13:30:00,
2013-07-04 06:32:00,72.3,57.6,29.65,NNW,332,0.0,1.0,60,0.00,,,0.00,,Wunderground v.1.13,2013-07-04 13:32:00,
2013-07-04 06:37:00,72.3,57.6,29.65,NNW,332,0.0,1.0,60,0.00,,,0.00,,Wunderground v.1.13,2013-07-04 13:37:00,
2013-07-04 06:45:00,75.4,59.1,29.65,NW,315,0.0,3.0,57,0.00,,,-99.99,132,WeatherLink 5.7,2013-07-04 13:45:00,
2013-07-04 06:47:00,72.3,58.5,29.65,NNW,332,0.0,1.0,62,0.00,,,0.00,,Wunderground v.1.13,2013-07-04 13:47:00,
2013-07-04 06:57:00,72.3,58.5,29.65,NNW,332,0.0,1.0,62,0.00,,,0.00,,Wunderground v.1.13,2013-07-04 13:57:00,
2013-07-04 07:00:00,76.8,58.9,29.65,NW,315,0.0,3.0,54,0.00,,,-99.99,172,WeatherLink 5.7,2013-07-04 14:00:00,
2013-07-04 07:02:00,72.3,58.5,29.65,NNW,332,0.0,1.0,62,0.00,,,0.00,,Wunderground v.1.13,2013-07-04 14:02:00,
2013-07-04 07:12:00,72.7,59.4,29.65,NNW,332,0.0,0.0,63,0.00,,,0.00,,Wunderground v.1.13,2013-07-04 14:12:00,
2013-07-04 07:15:00,78.5,59.4,29.67,WNW,292,0.0,4.0,52,0.00,,,-99.99,151,WeatherLink 5.7,2013-07-04 14:15:00,
2013-07-04 07:22:00,73.5,59.2,29.65,NNW,332,0.0,0.0,61,0.00,,,0.00,,Wunderground v.1.13,2013-07-04 14:22:00,
2013-07-04 07:30:00,77.7,59.2,29.68,WNW,292,1.0,7.0,53,0.00,,,-99.99,103,WeatherLink 5.7,2013-07-04 14:30:00,
2013-07-04 07:32:00,74.2,59.4,29.65,NNW,332,0.0,0.0,60,0.00,,,0.00,,Wunderground v.1.13,2013-07-04 14:32:00,
2013-07-04 07:42:00,75.1,59.8,29.65,NW,310,0.0,2.0,59,0.00,,,0.00,,Wunderground v.1.13,2013-07-04 14:42:00,
2013-07-04 07:45:00,77.0,60.1,29.68,NW,315,0.0,4.0,56,0.00,,,-99.99,72,WeatherLink 5.7,2013-07-04 14:45:00,
2013-07-04 07:47:00,75.4,58.6,29.65,NW,310,0.0,2.0,56,0.00,,,0.00,,Wunderground v.1.13,2013-07-04 14:47:00,
2013-07-04 07:57:00,76.5,58.6,29.65,NW,322,1.0,2.0,54,0.00,,,0.00,,Wunderground v.1.13,2013-07-04 14:57:00,
2013-07-04 08:00:00,76.5,59.6,29.67,WNW,292,0.0,3.0,56,0.00,,,-99.99,37,WeatherLink 5.7,2013-07-04 15:00:00,
2013-07-04 08:07:00,77.7,58.1,29.65,WNW,296,0.0,3.0,51,0.00,,,0.00,,Wunderground v.1.13,2013-07-04 15:07:00,
2013-07-04 08:12:00,78.3,58.7,29.65,WNW,296,0.0,3.0,51,0.00,,,0.00,,Wunderground v.1.13,2013-07-04 15:12:00,
2013-07-04 08:15:00,76.1,60.2,29.67,WNW,292,0.0,3.0,58,0.00,,,-99.99,53,WeatherLink 5.7,2013-07-04 15:15:00,
2013-07-04 08:17:00,78.6,59.0,29.67,WNW,284,1.0,3.0,51,0.00,,,0.00,,Wunderground v.1.13,2013-07-04 15:17:00,
2013-07-04 08:27:00,78.1,59.0,29.67,WNW,302,1.0,1.0,52,0.00,,,0.00,,Wunderground v.1.13,2013-07-04 15:27:00,
2013-07-04 08:30:00,76.1,59.8,29.67,NNE,22,0.0,2.0,57,0.00,,,-99.99,80,WeatherLink 5.7,2013-07-04 15:30:00,
2013-07-04 08:37:00,77.4,59.5,29.68,NW,307,1.0,1.0,54,0.00,,,0.00,,Wunderground v.1.13,2013-07-04 15:37:00,
2013-07-04 08:42:00,77.2,59.8,29.68,NNW,337,0.0,7.0,55,0.00,,,0.00,,Wunderground v.1.13,2013-07-04 15:42:00,
2013-07-04 08:45:00,78.6,60.6,29.67,ENE,67,0.0,4.0,54,0.00,,,-99.99,96,WeatherLink 5.7,2013-07-04 15:45:00,
2013-07-04 08:52:00,76.7,59.8,29.68,WNW,292,0.0,7.0,56,0.00,,,0.00,,Wunderground v.1.13,2013-07-04 15:52:00,
2013-07-04 08:57:00,76.7,59.8,29.68,NW,319,0.0,7.0,56,0.00,,,0.00,,Wunderground v.1.13,2013-07-04 15:57:00,
2013-07-04 09:00:00,80.5,60.1,29.66,WNW,292,0.0,4.0,50,0.00,,,-99.99,56,WeatherLink 5.7,2013-07-04 16:00:00,
2013-07-04 09:02:00,76.5,59.6,29.68,WNW,298,0.0,7.0,56,0.00,,,0.00,,Wunderground v.1.13,2013-07-04 16:02:00,
2013-07-04 09:12:00,76.1,60.2,29.68,WNW,298,0.0,3.0,58,0.00,,,0.00,,Wunderground v.1.13,2013-07-04 16:12:00,
2013-07-04 09:15:00,82.2,59.4,29.66,NW,315,1.0,5.0,46,0.00,,,-99.99,53,WeatherLink 5.7,2013-07-04 16:15:00,
2013-07-04 09:17:00,76.1,61.2,29.67,WNW,298,0.0,3.0,60,0.00,,,0.00,,Wunderground v.1.13,2013-07-04 16:17:00,
2013-07-04 09:27:00,76.0,59.7,29.67,NNE,17,0.0,3.0,57,0.00,,,0.00,,Wunderground v.1.13,2013-07-04 16:27:00,
2013-07-04 09:30:00,84.7,58.4,29.66,NW,315,2.0,6.0,41,0.00,,,-99.99,58,WeatherLink 5.7,2013-07-04 16:30:00,
2013-07-04 09:37:00,77.0,59.6,29.67,NNW,331,1.0,2.0,55,0.00,,,0.00,,Wunderground v.1.13,2013-07-04 16:37:00,
2013-07-04 09:42:00,78.1,59.6,29.67,North,360,1.0,1.0,53,0.00,,,0.00,,Wunderground v.1.13,2013-07-04 16:42:00,
2013-07-04 09:45:00,86.7,59.5,29.66,NW,315,1.0,6.0,40,0.00,,,-99.99,191,WeatherLink 5.7,2013-07-04 16:45:00,
2013-07-04 09:47:00,78.8,59.7,29.67,NW,307,0.0,2.0,52,0.00,,,0.00,,Wunderground v.1.13,2013-07-04 16:47:00,
2013-07-04 09:57:00,80.1,60.3,29.67,WNW,297,0.0,2.0,51,0.00,,,0.00,,Wunderground v.1.13,2013-07-04 16:57:00,
2013-07-04 10:00:00,88.2,58.6,29.66,NNW,337,1.0,4.0,37,0.00,,,-99.99,397,WeatherLink 5.7,2013-07-04 17:00:00,
2013-07-04 10:07:00,81.1,60.1,29.66,NW,307,0.0,4.0,49,0.00,,,0.00,,Wunderground v.1.13,2013-07-04 17:07:00,
2013-07-04 10:15:00,90.5,61.4,29.65,WNW,292,1.0,5.0,38,0.00,,,-99.99,751,WeatherLink 5.7,2013-07-04 17:15:00,
2013-07-04 10:17:00,82.6,59.7,29.66,NW,315,1.0,4.0,46,0.00,,,0.00,,Wunderground v.1.13,2013-07-04 17:17:00,
2013-07-04 10:27:00,84.3,59.4,29.66,NW,319,2.0,2.0,43,0.00,,,0.00,,Wunderground v.1.13,2013-07-04 17:27:00,
2013-07-04 10:30:00,92.9,56.9,29.66,WNW,292,1.0,9.0,30,0.00,,,-99.99,779,WeatherLink 5.7,2013-07-04 17:30:00,
2013-07-04 10:32:00,84.9,59.2,29.66,NW,305,1.0,5.0,42,0.00,,,0.00,,Wunderground v.1.13,2013-07-04 17:32:00,
2013-07-04 10:42:00,86.1,59.0,29.66,NW,315,1.0,1.0,40,0.00,,,0.00,,Wunderground v.1.13,2013-07-04 17:42:00,
2013-07-04 10:45:00,94.3,57.2,29.65,WNW,292,1.0,9.0,29,0.00,,,-99.99,807,WeatherLink 5.7,2013-07-04 17:45:00,
2013-07-04 10:47:00,86.7,58.8,29.66,NNW,347,1.0,6.0,39,0.00,,,0.00,,Wunderground v.1.13,2013-07-04 17:47:00,
2013-07-04 10:57:00,87.8,61.2,29.66,WNW,286,1.0,1.0,41,0.00,,,0.00,,Wunderground v.1.13,2013-07-04 17:57:00,
2013-07-04 11:00:00,95.4,56.1,29.66,NW,315,1.0,9.0,27,0.00,,,-99.99,830,WeatherLink 5.7,2013-07-04 18:00:00,
2013-07-04 11:02:00,88.4,59.6,29.66,NNW,342,1.0,1.0,38,0.00,,,0.00,,Wunderground v.1.13,2013-07-04 18:02:00,
2013-07-04 11:12:00,89.9,58.6,29.66,WNW,300,1.0,1.0,35,0.00,,,0.00,,Wunderground v.1.13,2013-07-04 18:12:00,
2013-07-04 11:15:00,95.9,55.5,29.65,NW,315,1.0,7.0,26,0.00,,,-99.99,852,WeatherLink 5.7,2013-07-04 18:15:00,
2013-07-04 11:22:00,91.6,57.6,29.65,WNW,284,1.0,1.0,32,0.00,,,0.00,,Wunderground v.1.13,2013-07-04 18:22:00,
2013-07-04 11:30:00,96.1,56.7,29.65,ENE,67,1.0,3.0,27,0.00,,,-99.99,870,WeatherLink 5.7,2013-07-04 18:30:00,
2013-07-04 11:32:00,92.9,56.0,29.66,WSW,241,2.0,4.0,29,0.00,,,0.00,,Wunderground v.1.13,2013-07-04 18:32:00,
2013-07-04 11:37:00,93.4,56.4,29.66,NW,312,2.0,2.0,29,0.00,,,0.00,,Wunderground v.1.13,2013-07-04 18:37:00,
2013-07-04 11:45:00,96.1,56.7,29.65,ENE,67,1.0,9.0,27,0.00,,,-99.99,883,WeatherLink 5.7,2013-07-04 18:45:00,
2013-07-04 11:47:00,94.5,57.3,29.65,West,278,1.0,1.0,29,0.00,,,0.00,,Wunderground v.1.13,2013-07-04 18:47:00,
2013-07-04 11:57:00,95.1,56.9,29.65,WNW,294,2.0,9.0,28,0.00,,,0.00,,Wunderground v.1.13,2013-07-04 18:57:00,
2013-07-04 12:00:00,97.3,57.7,29.65,NW,315,1.0,5.0,27,0.00,,,-99.99,891,WeatherLink 5.7,2013-07-04 19:00:00,
2013-07-04 12:07:00,95.6,56.3,29.66,ENE,60,1.0,9.0,27,0.00,,,0.00,,Wunderground v.1.13,2013-07-04 19:07:00,
2013-07-04 12:12:00,95.6,56.3,29.66,NNW,342,1.0,9.0,27,0.00,,,0.00,,Wunderground v.1.13,2013-07-04 19:12:00,
2013-07-04 12:15:00,98.2,56.4,29.64,NNW,337,1.0,4.0,25,0.00,,,-99.99,318,WeatherLink 5.7,2013-07-04 19:15:00,
2013-07-04 12:17:00,95.9,55.5,29.65,NNW,330,1.0,1.0,26,0.00,,,0.00,,Wunderground v.1.13,2013-07-04 19:17:00,
2013-07-04 12:27:00,95.9,56.5,29.65,East,80,0.0,9.0,27,0.00,,,0.00,,Wunderground v.1.13,2013-07-04 19:27:00,
2013-07-04 12:30:00,98.2,57.4,29.64,West,270,1.0,10.0,26,0.00,,,-99.99,887,WeatherLink 5.7,2013-07-04 19:30:00,
2013-07-04 12:32:00,96.1,56.7,29.65,NNE,22,1.0,1.0,27,0.00,,,0.00,,Wunderground v.1.13,2013-07-04 19:32:00,
2013-07-04 12:37:00,96.3,57.9,29.65,NE,44,1.0,3.0,28,0.00,,,0.00,,Wunderground v.1.13,2013-07-04 19:37:00,
2013-07-04 12:42:00,96.3,56.9,29.65,NE,43,1.0,3.0,27,0.00,,,0.00,,Wunderground v.1.13,2013-07-04 19:42:00,
2013-07-04 12:45:00,98.7,55.6,29.64,ESE,112,1.0,9.0,24,0.00,,,-99.99,661,WeatherLink 5.7,2013-07-04 19:45:00,
2013-07-04 12:52:00,96.3,56.9,29.65,NW,311,1.0,5.0,27,0.00,,,0.00,,Wunderground v.1.13,2013-07-04 19:52:00,
2013-07-04 12:57:00,96.8,56.3,29.65,NW,326,1.0,3.0,26,0.00,,,0.00,,Wunderground v.1.13,2013-07-04 19:57:00,
2013-07-04 13:00:00,99.0,57.0,29.62,West,270,2.0,9.0,25,0.00,,,-99.99,410,WeatherLink 5.7,2013-07-04 20:00:00,
2013-07-04 13:07:00,97.8,57.1,29.65,East,101,1.0,5.0,26,0.00,,,0.00,,Wunderground v.1.13,2013-07-04 20:07:00,
2013-07-04 13:15:00,99.7,57.6,29.62,West,270,1.0,7.0,25,0.00,,,-99.99,137,WeatherLink 5.7,2013-07-04 20:15:00,
2013-07-04 13:17:00,98.2,56.4,29.64,NW,306,1.0,5.0,25,0.00,,,0.00,,Wunderground v.1.13,2013-07-04 20:17:00,
2013-07-04 13:22:00,98.2,56.4,29.64,NNW,346,1.0,1.0,25,0.00,,,0.00,,Wunderground v.1.13,2013-07-04 20:22:00,
2013-07-04 13:30:00,100.4,57.1,29.62,NW,315,2.0,10.0,24,0.00,,,-99.99,102,WeatherLink 5.7,2013-07-04 20:30:00,
2013-07-04 13:32:00,98.5,57.7,29.64,ESE,106,1.0,1.0,26,0.00,,,0.00,,Wunderground v.1.13,2013-07-04 20:32:00,
2013-07-04 13:37:00,98.5,56.6,29.64,ESE,105,1.0,1.0,25,0.00,,,0.00,,Wunderground v.1.13,2013-07-04 20:37:00,
2013-07-04 13:42:00,98.5,56.6,29.64,ESE,121,2.0,2.0,25,0.00,,,0.00,,Wunderground v.1.13,2013-07-04 20:42:00,
2013-07-04 13:45:00,101.5,56.8,29.61,WSW,247,1.0,6.0,23,0.00,,,-99.99,427,WeatherLink 5.7,2013-07-04 20:45:00,
2013-07-04 13:52:00,98.7,57.9,29.64,NW,309,2.0,10.0,26,0.00,,,0.00,,Wunderground v.1.13,2013-07-04 20:52:00,
2013-07-04 14:00:00,102.3,56.2,29.60,WSW,247,1.0,6.0,22,0.00,,,-99.99,244,WeatherLink 5.7,2013-07-04 21:00:00,
2013-07-04 14:02:00,99.0,57.0,29.63,SW,225,2.0,2.0,25,0.00,,,0.00,,Wunderground v.1.13,2013-07-04 21:02:00,
2013-07-04 14:12:00,99.7,57.6,29.63,ENE,67,1.0,1.0,25,0.00,,,0.00,,Wunderground v.1.13,2013-07-04 21:12:00,
2013-07-04 14:15:00,102.8,56.7,29.60,NNW,337,1.0,5.0,22,0.00,,,-99.99,743,WeatherLink 5.7,2013-07-04 21:15:00,
2013-07-04 14:17:00,99.7,56.5,29.62,ENE,65,1.0,9.0,24,0.00,,,0.00,,Wunderground v.1.13,2013-07-04 21:17:00,
2013-07-04 14:27:00,100.4,58.2,29.62,North,355,1.0,9.0,25,0.00,,,0.00,,Wunderground v.1.13,2013-07-04 21:27:00,
2013-07-04 14:30:00,102.8,56.7,29.60,West,270,2.0,12.0,22,0.00,,,-99.99,804,WeatherLink 5.7,2013-07-04 21:30:00,
2013-07-04 14:37:00,101.0,57.6,29.62,North,5,2.0,2.0,24,0.00,,,0.00,,Wunderground v.1.13,2013-07-04 21:37:00,
2013-07-04 14:45:00,102.8,56.7,29.59,West,270,1.0,7.0,22,0.00,,,-99.99,781,WeatherLink 5.7,2013-07-04 21:45:00,
2013-07-04 14:47:00,101.2,56.6,29.61,ESE,102,1.0,1.0,23,0.00,,,0.00,,Wunderground v.1.13,2013-07-04 21:47:00,
2013-07-04 14:57:00,102.0,56.0,29.61,WSW,254,1.0,1.0,22,0.00,,,0.00,,Wunderground v.1.13,2013-07-04 21:57:00,
2013-07-04 15:00:00,103.8,57.5,29.59,WNW,292,1.0,5.0,22,0.00,,,-99.99,751,WeatherLink 5.7,2013-07-04 22:00:00,
2013-07-04 15:02:00,102.3,56.2,29.60,ESE,110,1.0,1.0,22,0.00,,,0.00,,Wunderground v.1.13,2013-07-04 22:02:00,
2013-07-04 15:07:00,102.5,56.4,29.60,NNW,332,1.0,6.0,22,0.00,,,0.00,,Wunderground v.1.13,2013-07-04 22:07:00,
2013-07-04 15:15:00,103.6,58.6,29.59,NW,315,1.0,5.0,23,0.00,,,-99.99,719,WeatherLink 5.7,2013-07-04 22:15:00,
2013-07-04 15:17:00,102.8,56.7,29.60,West,268,1.0,7.0,22,0.00,,,0.00,,Wunderground v.1.13,2013-07-04 22:17:00,
2013-07-04 15:22:00,102.8,56.7,29.60,West,259,2.0,2.0,22,0.00,,,0.00,,Wunderground v.1.13,2013-07-04 22:22:00,
2013-07-04 15:30:00,102.5,55.1,29.58,WNW,292,1.0,7.0,21,0.00,,,-99.99,685,WeatherLink 5.7,2013-07-04 22:30:00,
2013-07-04 15:32:00,102.8,56.7,29.60,East,88,1.0,6.0,22,0.00,,,0.00,,Wunderground v.1.13,2013-07-04 22:32:00,
2013-07-04 15:37:00,102.8,56.7,29.60,West,260,1.0,1.0,22,0.00,,,0.00,,Wunderground v.1.13,2013-07-04 22:37:00,
2013-07-04 15:45:00,101.7,58.2,29.58,NW,315,1.0,5.0,24,0.00,,,-99.99,650,WeatherLink 5.7,2013-07-04 22:45:00,
2013-07-04 15:47:00,103.1,56.9,29.59,NNE,18,1.0,12.0,22,0.00,,,0.00,,Wunderground v.1.13,2013-07-04 22:47:00,
2013-07-04 15:57:00,103.6,57.3,29.59,WNW,295,1.0,1.0,22,0.00,,,0.00,,Wunderground v.1.13,2013-07-04 22:57:00,
2013-07-04 16:00:00,101.5,56.8,29.57,WNW,292,1.0,4.0,23,0.00,,,-99.99,609,WeatherLink 5.7,2013-07-04 23:00:00,
2013-07-04 16:07:00,103.6,57.3,29.59,NW,310,1.0,5.0,22,0.00,,,0.00,,Wunderground v.1.13,2013-07-04 23:07:00,
2013-07-04 16:15:00,99.9,56.7,29.57,NE,45,1.0,4.0,24,0.00,,,-99.99,569,WeatherLink 5.7,2013-07-04 23:15:00,
2013-07-04 16:17:00,103.3,57.1,29.59,ENE,73,0.0,5.0,22,0.00,,,0.00,,Wunderground v.1.13,2013-07-04 23:17:00,
2013-07-04 16:22:00,102.8,57.9,29.59,WNW,284,0.0,5.0,23,0.00,,,0.00,,Wunderground v.1.13,2013-07-04 23:22:00,
2013-07-04 16:27:00,102.8,57.9,29.59,WNW,286,0.0,5.0,23,0.00,,,0.00,,Wunderground v.1.13,2013-07-04 23:27:00,
2013-07-04 16:30:00,99.0,57.0,29.57,WNW,292,1.0,5.0,25,0.00,,,-99.99,527,WeatherLink 5.7,2013-07-04 23:30:00,
2013-07-04 16:32:00,102.5,56.4,29.58,SW,236,1.0,5.0,22,0.00,,,0.00,,Wunderground v.1.13,2013-07-04 23:32:00,
2013-07-04 16:42:00,102.0,57.2,29.58,NW,323,1.0,7.0,23,0.00,,,0.00,,Wunderground v.1.13,2013-07-04 23:42:00,
2013-07-04 16:45:00,98.5,56.6,29.57,ENE,67,0.0,2.0,25,0.00,,,-99.99,486,WeatherLink 5.7,2013-07-04 23:45:00,
2013-07-04 16:52:00,102.0,56.0,29.57,ENE,65,1.0,7.0,22,0.00,,,0.00,,Wunderground v.1.13,2013-07-04 23:52:00,
2013-07-04 17:00:00,96.6,55.0,29.56,East,90,0.0,2.0,25,0.00,,,-99.99,444,WeatherLink 5.7,2013-07-05 00:00:00,
2013-07-04 17:02:00,101.5,56.8,29.57,NNW,332,0.0,7.0,23,0.00,,,0.00,,Wunderground v.1.13,2013-07-05 00:02:00,
2013-07-04 17:07:00,101.0,57.6,29.57,NE,47,0.0,4.0,24,0.00,,,0.00,,Wunderground v.1.13,2013-07-05 00:07:00,
2013-07-04 17:12:00,100.2,56.9,29.57,ESE,110,0.0,4.0,24,0.00,,,0.00,,Wunderground v.1.13,2013-07-05 00:12:00,
2013-07-04 17:15:00,95.4,55.1,29.56,East,90,0.0,2.0,26,0.00,,,-99.99,398,WeatherLink 5.7,2013-07-05 00:15:00,
2013-07-04 17:22:00,99.7,55.3,29.57,SSE,165,1.0,4.0,23,0.00,,,0.00,,Wunderground v.1.13,2013-07-05 00:22:00,
2013-07-04 17:30:00,94.3,55.2,29.56,East,90,0.0,2.0,27,0.00,,,-99.99,353,WeatherLink 5.7,2013-07-05 00:30:00,
2013-07-04 17:32:00,99.0,57.0,29.57,ENE,59,1.0,1.0,25,0.00,,,0.00,,Wunderground v.1.13,2013-07-05 00:32:00,
2013-07-04 17:37:00,99.0,58.1,29.57,ENE,68,0.0,5.0,26,0.00,,,0.00,,Wunderground v.1.13,2013-07-05 00:37:00,
2013-07-04 17:42:00,98.7,56.8,29.57,East,88,0.0,5.0,25,0.00,,,0.00,,Wunderground v.1.13,2013-07-05 00:42:00,
2013-07-04 17:45:00,95.1,53.7,29.56,North,0,1.0,4.0,25,0.00,,,-99.99,308,WeatherLink 5.7,2013-07-05 00:45:00,
2013-07-04 17:52:00,97.8,56.0,29.57,East,84,0.0,5.0,25,0.00,,,0.00,,Wunderground v.1.13,2013-07-05 00:52:00,
2013-07-04 17:57:00,97.1,55.4,29.57,East,84,0.0,5.0,25,0.00,,,0.00,,Wunderground v.1.13,2013-07-05 00:57:00,
2013-07-04 18:00:00,94.7,53.4,29.56,NNW,337,1.0,5.0,25,0.00,,,-99.99,262,WeatherLink 5.7,2013-07-05 01:00:00,
2013-07-04 18:07:00,95.9,56.5,29.56,ENE,78,0.0,2.0,27,0.00,,,0.00,,Wunderground v.1.13,2013-07-05 01:07:00,
2013-07-04 18:15:00,93.2,53.2,29.56,North,0,0.0,2.0,26,0.00,,,-99.99,214,WeatherLink 5.7,2013-07-05 01:15:00,
2013-07-04 18:17:00,95.1,55.9,29.56,East,83,0.0,2.0,27,0.00,,,0.00,,Wunderground v.1.13,2013-07-05 01:17:00,
2013-07-04 18:27:00,94.3,56.2,29.56,East,83,0.0,2.0,28,0.00,,,0.00,,Wunderground v.1.13,2013-07-05 01:27:00,
2013-07-04 18:30:00,92.3,52.5,29.56,NW,315,0.0,4.0,26,0.00,,,-99.99,94,WeatherLink 5.7,2013-07-05 01:30:00,
2013-07-04 18:37:00,94.5,53.2,29.56,North,360,0.0,2.0,25,0.00,,,0.00,,Wunderground v.1.13,2013-07-05 01:37:00,
2013-07-04 18:42:00,94.7,53.4,29.56,NW,310,0.0,2.0,25,0.00,,,0.00,,Wunderground v.1.13,2013-07-05 01:42:00,
2013-07-04 18:45:00,89.3,51.9,29.57,NW,315,1.0,5.0,28,0.00,,,-99.99,20,WeatherLink 5.7,2013-07-05 01:45:00,
2013-07-04 18:52:00,95.6,53.1,29.56,NNW,329,1.0,2.0,24,0.00,,,0.00,,Wunderground v.1.13,2013-07-05 01:52:00,
2013-07-04 19:00:00,87.4,50.3,29.58,NNW,337,1.0,5.0,28,0.00,,,-99.99,14,WeatherLink 5.7,2013-07-05 02:00:00,
2013-07-04 19:02:00,94.7,53.4,29.56,North,5,1.0,1.0,25,0.00,,,0.00,,Wunderground v.1.13,2013-07-05 02:02:00,
2013-07-04 19:07:00,94.0,54.9,29.56,North,5,0.0,5.0,27,0.00,,,0.00,,Wunderground v.1.13,2013-07-05 02:07:00,
2013-07-04 19:15:00,85.7,51.6,29.58,WNW,292,0.0,1.0,31,0.00,,,-99.99,10,WeatherLink 5.7,2013-07-05 02:15:00,
2013-07-04 19:17:00,92.9,54.0,29.56,North,5,0.0,5.0,27,0.00,,,0.00,,Wunderground v.1.13,2013-07-05 02:17:00,
2013-07-04 19:27:00,92.5,52.6,29.56,NW,319,0.0,5.0,26,0.00,,,0.00,,Wunderground v.1.13,2013-07-05 02:27:00,
2013-07-04 19:30:00,84.1,51.1,29.58,NNE,22,0.0,2.0,32,0.00,,,-99.99,5,WeatherLink 5.7,2013-07-05 02:30:00,
2013-07-04 19:37:00,91.2,52.5,29.56,NW,325,1.0,1.0,27,0.00,,,0.00,,Wunderground v.1.13,2013-07-05 02:37:00,
2013-07-04 19:42:00,90.1,52.6,29.56,NW,315,1.0,4.0,28,0.00,,,0.00,,Wunderground v.1.13,2013-07-05 02:42:00,
2013-07-04 19:45:00,82.4,51.2,29.59,NNE,22,0.0,2.0,34,0.00,,,-99.99,0,WeatherLink 5.7,2013-07-05 02:45:00,
2013-07-04 19:47:00,89.0,51.7,29.57,NNW,329,1.0,1.0,28,0.00,,,0.00,,Wunderground v.1.13,2013-07-05 02:47:00,
2013-07-04 19:57:00,87.6,50.5,29.57,NNW,340,1.0,1.0,28,0.00,,,0.00,,Wunderground v.1.13,2013-07-05 02:57:00,
2013-07-04 20:00:00,80.7,50.5,29.59,NNE,22,0.0,2.0,35,0.00,,,-99.99,0,WeatherLink 5.7,2013-07-05 03:00:00,
2013-07-04 20:02:00,87.2,51.1,29.57,WNW,302,1.0,1.0,29,0.00,,,0.00,,Wunderground v.1.13,2013-07-05 03:02:00,
2013-07-04 20:12:00,86.1,52.8,29.57,WNW,302,0.0,5.0,32,0.00,,,0.00,,Wunderground v.1.13,2013-07-05 03:12:00,
2013-07-04 20:15:00,79.2,49.9,29.60,NE,45,1.0,3.0,36,0.00,,,-99.99,0,WeatherLink 5.7,2013-07-05 03:15:00,
2013-07-04 20:22:00,85.1,52.8,29.58,NNE,26,0.0,5.0,33,0.00,,,0.00,,Wunderground v.1.13,2013-07-05 03:22:00,
2013-07-04 20:30:00,78.5,50.1,29.61,ENE,67,0.0,2.0,37,0.00,,,-99.99,0,WeatherLink 5.7,2013-07-05 03:30:00,
2013-07-04 20:32:00,84.0,51.0,29.58,NNE,26,0.0,5.0,32,0.00,,,0.00,,Wunderground v.1.13,2013-07-05 03:32:00,
2013-07-04 20:37:00,83.4,51.3,29.58,NNE,26,0.0,2.0,33,0.00,,,0.00,,Wunderground v.1.13,2013-07-05 03:37:00,
2013-07-04 20:45:00,77.6,50.0,29.61,NW,315,0.0,3.0,38,0.00,,,-99.99,0,WeatherLink 5.7,2013-07-05 03:45:00,
2013-07-04 20:47:00,82.2,51.0,29.59,NNE,26,0.0,2.0,34,0.00,,,0.00,,Wunderground v.1.13,2013-07-05 03:47:00,
2013-07-04 20:57:00,81.1,50.9,29.59,NE,40,0.0,2.0,35,0.00,,,0.00,,Wunderground v.1.13,2013-07-05 03:57:00,
2013-07-04 21:00:00,76.7,49.2,29.61,North,0,0.0,2.0,38,0.00,,,-99.99,0,WeatherLink 5.7,2013-07-05 04:00:00,
2013-07-04 21:02:00,80.5,50.3,29.59,NE,40,0.0,2.0,35,0.00,,,0.00,,Wunderground v.1.13,2013-07-05 04:02:00,
2013-07-04 21:07:00,79.9,49.8,29.59,NE,53,0.0,2.0,35,0.00,,,0.00,,Wunderground v.1.13,2013-07-05 04:07:00,
2013-07-04 21:12:00,79.6,49.5,29.59,ENE,57,1.0,2.0,35,0.00,,,0.00,,Wunderground v.1.13,2013-07-05 04:12:00,
2013-07-04 21:15:00,76.3,48.8,29.61,North,0,0.0,1.0,38,0.00,,,-99.99,0,WeatherLink 5.7,2013-07-05 04:15:00,
2013-07-04 21:22:00,78.8,49.6,29.60,ENE,57,0.0,2.0,36,0.00,,,0.00,,Wunderground v.1.13,2013-07-05 04:22:00,
2013-07-04 21:27:00,78.6,50.1,29.60,ENE,57,0.0,2.0,37,0.00,,,0.00,,Wunderground v.1.13,2013-07-05 04:27:00,
2013-07-04 21:30:00,75.8,49.1,29.61,ENE,67,0.0,1.0,39,0.00,,,-99.99,0,WeatherLink 5.7,2013-07-05 04:30:00,
2013-07-04 21:37:00,78.1,49.7,29.61,NW,308,0.0,2.0,37,0.00,,,0.00,,Wunderground v.1.13,2013-07-05 04:37:00,
2013-07-04 21:42:00,77.7,50.1,29.61,NW,307,0.0,2.0,38,0.00,,,0.00,,Wunderground v.1.13,2013-07-05 04:42:00,
2013-07-04 21:45:00,75.4,48.7,29.61,ENE,67,0.0,2.0,39,0.00,,,-99.99,0,WeatherLink 5.7,2013-07-05 04:45:00,
2013-07-04 21:47:00,77.6,50.7,29.61,NW,325,0.0,2.0,39,0.00,,,0.00,,Wunderground v.1.13,2013-07-05 04:47:00,
2013-07-04 21:57:00,76.8,50.0,29.61,North,5,0.0,2.0,39,0.00,,,0.00,,Wunderground v.1.13,2013-07-05 04:57:00,
2013-07-04 22:00:00,74.7,50.1,29.62,North,0,0.0,3.0,42,0.00,,,-99.99,0,WeatherLink 5.7,2013-07-05 05:00:00,
2013-07-04 22:07:00,76.5,49.7,29.61,North,5,0.0,2.0,39,0.00,,,0.00,,Wunderground v.1.13,2013-07-05 05:07:00,
2013-07-04 22:12:00,76.3,48.8,29.61,North,5,0.0,2.0,38,0.00,,,0.00,,Wunderground v.1.13,2013-07-05 05:12:00,
2013-07-04 22:15:00,73.7,50.4,29.62,NW,315,0.0,2.0,44,0.00,,,-99.99,0,WeatherLink 5.7,2013-07-05 05:15:00,
2013-07-04 22:22:00,76.1,49.3,29.61,ENE,67,0.0,2.0,39,0.00,,,0.00,,Wunderground v.1.13,2013-07-05 05:22:00,
2013-07-04 22:30:00,72.5,50.5,29.62,NW,315,1.0,7.0,46,0.00,,,-99.99,0,WeatherLink 5.7,2013-07-05 05:30:00,
2013-07-04 22:32:00,75.8,49.1,29.61,ENE,67,0.0,2.0,39,0.00,,,0.00,,Wunderground v.1.13,2013-07-05 05:32:00,
2013-07-04 22:37:00,75.6,48.9,29.61,ENE,66,0.0,1.0,39,0.00,,,0.00,,Wunderground v.1.13,2013-07-05 05:37:00,
2013-07-04 22:42:00,75.6,49.6,29.61,ENE,66,0.0,1.0,40,0.00,,,0.00,,Wunderground v.1.13,2013-07-05 05:42:00,
2013-07-04 22:45:00,71.5,50.2,29.62,NNW,337,1.0,5.0,47,0.00,,,-99.99,0,WeatherLink 5.7,2013-07-05 05:45:00,
2013-07-04 22:52:00,75.1,49.1,29.61,North,11,0.0,1.0,40,0.00,,,0.00,,Wunderground v.1.13,2013-07-05 05:52:00,
2013-07-04 23:00:00,70.4,50.3,29.62,WNW,292,1.0,4.0,49,0.00,,,-99.99,0,WeatherLink 5.7,2013-07-05 06:00:00,
2013-07-04 23:02:00,74.6,50.0,29.62,ENE,62,0.0,1.0,42,0.00,,,0.00,,Wunderground v.1.13,2013-07-05 06:02:00,
2013-07-04 23:07:00,74.4,50.4,29.62,NW,304,0.0,3.0,43,0.00,,,0.00,,Wunderground v.1.13,2013-07-05 06:07:00,
2013-07-04 23:15:00,69.4,49.9,29.62,NW,315,1.0,4.0,50,0.00,,,-99.99,0,WeatherLink 5.7,2013-07-05 06:15:00,
2013-07-04 23:17:00,73.7,50.4,29.62,NW,305,0.0,3.0,44,0.00,,,0.00,,Wunderground v.1.13,2013-07-05 06:17:00,
2013-07-04 23:22:00,73.2,50.6,29.62,NW,309,0.0,3.0,45,0.00,,,0.00,,Wunderground v.1.13,2013-07-05 06:22:00,
2013-07-04 23:27:00,72.8,50.2,29.62,NW,309,0.0,3.0,45,0.00,,,0.00,,Wunderground v.1.13,2013-07-05 06:27:00,
2013-07-04 23:30:00,68.9,49.5,29.62,WNW,292,1.0,5.0,50,0.00,,,-99.99,0,WeatherLink 5.7,2013-07-05 06:30:00,
2013-07-04 23:37:00,72.1,50.2,29.62,NNW,329,1.0,7.0,46,0.00,,,0.00,,Wunderground v.1.13,2013-07-05 06:37:00,
2013-07-04 23:42:00,71.6,50.3,29.62,WNW,292,0.0,7.0,47,0.00,,,0.00,,Wunderground v.1.13,2013-07-05 06:42:00,
2013-07-04 23:45:00,68.6,49.7,29.62,NW,315,0.0,3.0,51,0.00,,,-99.99,0,WeatherLink 5.7,2013-07-05 06:45:00,
2013-07-04 23:52:00,70.9,50.2,29.62,West,280,1.0,7.0,48,0.00,,,0.00,,Wunderground v.1.13,2013-07-05 06:52:00,